TimeCST,TemperatureF,Dew PointF,Humidity,Sea Level PressureIn,VisibilityMPH,Wind Direction,Wind SpeedMPH,Gust SpeedMPH,PrecipitationIn,Events,Conditions,WindDirDegrees,DateUTC
12:15 AM,32.0,32.0,100,29.99,10.0,Calm,Calm,-,N/A,,Clear,0,2012-11-17 06:15:00
12:35 AM,33.8,32.0,93,29.99,10.0,SSW,4.6,-,N/A,,Clear,200,2012-11-17 06:35:00
12:55 AM,33.8,32.0,93,29.99,10.0,Calm,Calm,-,N/A,,Clear,0,2012-11-17 06:55:00
1:15 AM,33.8,33.8,100,29.99,10.0,SSW,3.5,-,N/A,,Clear,200,2012-11-17 07:15:00
1:35 AM,35.6,32.0,87,29.99,10.0,South,4.6,-,N/A,,Clear,180,2012-11-17 07:35:00
1:55 AM,32.0,32.0,100,29.99,10.0,Calm,Calm,-,N/A,,Scattered Clouds,0,2012-11-17 07:55:00
2:15 AM,32.0,32.0,100,29.98,10.0,NE,3.5,-,N/A,,Scattered Clouds,50,2012-11-17 08:15:00
2:35 AM,32.0,32.0,100,29.98,10.0,NE,5.8,-,N/A,,Partly Cloudy,40,2012-11-17 08:35:00
2:55 AM,32.0,32.0,100,29.97,10.0,NE,6.9,-,N/A,,Scattered Clouds,50,2012-11-17 08:55:00
3:15 AM,32.0,32.0,100,29.96,10.0,NE,9.2,-,N/A,,Overcast,50,2012-11-17 09:15:00
3:35 AM,32.0,32.0,100,29.99,10.0,SW,6.9,-,N/A,,Overcast,230,2012-11-17 09:35:00
4:15 AM,32.0,32.0,100,29.99,10.0,WSW,3.5,-,N/A,,Partly Cloudy,250,2012-11-17 10:15:00
4:35 AM,32.0,32.0,100,29.99,10.0,South,4.6,-,N/A,,Scattered Clouds,170,2012-11-17 10:35:00
4:55 AM,32.0,32.0,100,29.99,10.0,Calm,Calm,-,N/A,,Overcast,0,2012-11-17 10:55:00
5:15 AM,32.0,32.0,100,30.00,10.0,Calm,Calm,-,N/A,,Overcast,0,2012-11-17 11:15:00
5:35 AM,32.0,32.0,100,30.00,10.0,Calm,Calm,-,N/A,,Overcast,0,2012-11-17 11:35:00
5:55 AM,32.0,32.0,100,30.02,10.0,NW,3.5,-,N/A,,Overcast,320,2012-11-17 11:55:00
6:15 AM,32.0,32.0,100,30.03,10.0,Calm,Calm,-,N/A,,Overcast,0,2012-11-17 12:15:00
6:35 AM,32.0,32.0,100,30.02,10.0,NNW,6.9,-,N/A,,Overcast,330,2012-11-17 12:35:00
6:55 AM,32.0,32.0,100,30.01,10.0,NNE,6.9,-,N/A,,Overcast,30,2012-11-17 12:55:00
7:15 AM,32.0,32.0,100,30.01,10.0,NW,3.5,-,N/A,,Overcast,310,2012-11-17 13:15:00
7:35 AM,32.0,32.0,100,30.02,10.0,South,8.1,-,N/A,,Overcast,190,2012-11-17 13:35:00
7:55 AM,32.0,32.0,100,30.02,10.0,North,3.5,-,N/A,,Overcast,10,2012-11-17 13:55:00
8:15 AM,32.0,32.0,100,30.03,10.0,Calm,Calm,-,N/A,,Mostly Cloudy,0,2012-11-17 14:15:00
8:35 AM,32.0,32.0,100,30.02,10.0,North,3.5,-,N/A,,Partly Cloudy,350,2012-11-17 14:35:00
8:55 AM,33.8,33.8,100,30.02,10.0,North,8.1,-,N/A,,Mostly Cloudy,350,2012-11-17 14:55:00
9:15 AM,32.0,32.0,100,30.02,10.0,NNW,8.1,-,N/A,,Overcast,340,2012-11-17 15:15:00
9:35 AM,33.8,33.8,100,30.02,10.0,NE,4.6,-,N/A,,Overcast,50,2012-11-17 15:35:00
9:55 AM,35.6,35.6,100,30.02,10.0,NNE,5.8,-,N/A,,Scattered Clouds,30,2012-11-17 15:55:00
10:15 AM,35.6,35.6,100,30.02,10.0,NE,6.9,-,N/A,,Scattered Clouds,50,2012-11-17 16:15:00
10:35 AM,35.6,35.6,100,30.02,10.0,North,3.5,-,N/A,,Mostly Cloudy,360,2012-11-17 16:35:00
11:55 AM,37.4,35.6,93,30.02,10.0,NNW,5.8,-,N/A,,Partly Cloudy,340,2012-11-17 17:55:00
12:15 PM,37.4,35.6,93,30.01,10.0,North,6.9,-,N/A,,Partly Cloudy,350,2012-11-17 18:15:00
12:35 PM,39.2,35.6,87,30.00,10.0,North,4.6,-,N/A,,Mostly Cloudy,360,2012-11-17 18:35:00
12:55 PM,41.0,35.6,81,30.00,10.0,NNW,6.9,-,N/A,,Overcast,330,2012-11-17 18:55:00
1:15 PM,41.0,35.6,81,30.00,10.0,NNW,6.9,-,N/A,,Overcast,340,2012-11-17 19:15:00
1:35 PM,41.0,35.6,81,30.00,10.0,North,5.8,-,N/A,,Overcast,360,2012-11-17 19:35:00
1:55 PM,44.6,35.6,71,30.00,10.0,NNW,4.6,-,N/A,,Overcast,340,2012-11-17 19:55:00
2:15 PM,41.0,35.6,81,30.00,10.0,Calm,Calm,-,N/A,,Overcast,0,2012-11-17 20:15:00
2:35 PM,44.6,35.6,71,30.00,10.0,Calm,Calm,-,N/A,,Mostly Cloudy,0,2012-11-17 20:35:00
2:55 PM,44.6,35.6,71,30.00,10.0,ENE,4.6,-,N/A,,Partly Cloudy,60,2012-11-17 20:55:00
3:15 PM,44.6,35.6,71,30.00,10.0,NE,4.6,-,N/A,,Partly Cloudy,50,2012-11-17 21:15:00
3:35 PM,44.6,35.6,71,30.00,10.0,NE,3.5,-,N/A,,Clear,50,2012-11-17 21:35:00
3:55 PM,44.6,35.6,71,30.00,10.0,ENE,4.6,-,N/A,,Clear,60,2012-11-17 21:55:00
4:15 PM,41.0,35.6,81,30.00,10.0,NE,5.8,-,N/A,,Clear,40,2012-11-17 22:15:00
4:35 PM,39.2,35.6,87,30.00,10.0,North,3.5,-,N/A,,Clear,10,2012-11-17 22:35:00
4:55 PM,39.2,35.6,87,30.01,10.0,NNE,4.6,-,N/A,,Clear,20,2012-11-17 22:55:00
5:15 PM,39.2,35.6,87,30.01,10.0,Calm,Calm,-,N/A,,Clear,0,2012-11-17 23:15:00
5:35 PM,41.0,35.6,81,30.01,10.0,Calm,Calm,-,N/A,,Clear,0,2012-11-17 23:35:00
5:55 PM,39.2,35.6,87,30.01,10.0,ESE,4.6,-,N/A,,Clear,120,2012-11-17 23:55:00
6:15 PM,35.6,33.8,93,30.01,10.0,East,6.9,-,N/A,,Clear,100,2012-11-18 00:15:00
6:35 PM,35.6,35.6,100,30.01,10.0,SE,4.6,-,N/A,,Clear,140,2012-11-18 00:35:00
6:55 PM,35.6,33.8,93,30.01,10.0,ESE,8.1,-,N/A,,Clear,110,2012-11-18 00:55:00
7:15 PM,32.0,32.0,100,30.01,10.0,East,5.8,-,N/A,,Clear,100,2012-11-18 01:15:00
7:35 PM,35.6,35.6,100,30.01,10.0,East,8.1,-,N/A,,Clear,90,2012-11-18 01:35:00
7:55 PM,35.6,35.6,100,30.00,10.0,East,6.9,-,N/A,,Clear,90,2012-11-18 01:55:00
8:15 PM,33.8,33.8,100,30.00,10.0,ENE,6.9,-,N/A,,Clear,70,2012-11-18 02:15:00
8:35 PM,33.8,33.8,100,30.00,10.0,East,6.9,-,N/A,,Clear,90,2012-11-18 02:35:00
8:55 PM,33.8,33.8,100,30.00,10.0,East,6.9,-,N/A,,Clear,90,2012-11-18 02:55:00
9:15 PM,32.0,32.0,100,30.00,10.0,East,8.1,-,N/A,,Clear,90,2012-11-18 03:15:00
9:35 PM,32.0,32.0,100,30.00,10.0,East,6.9,-,N/A,,Clear,90,2012-11-18 03:35:00
9:55 PM,32.0,32.0,100,29.99,8.0,East,5.8,-,N/A,,Clear,80,2012-11-18 03:55:00
10:15 PM,30.2,30.2,100,29.99,7.0,ENE,4.6,-,N/A,,Clear,60,2012-11-18 04:15:00
10:35 PM,28.4,28.4,100,29.99,3.0,ENE,3.5,-,N/A,,Clear,60,2012-11-18 04:35:00
10:55 PM,32.0,32.0,100,29.99,5.0,ENE,3.5,-,N/A,,Clear,70,2012-11-18 04:55:00
11:15 PM,30.2,30.2,100,29.98,4.0,ENE,4.6,-,N/A,,Clear,60,2012-11-18 05:15:00
11:35 PM,30.2,30.2,100,29.98,3.0,East,5.8,-,N/A,,Clear,80,2012-11-18 05:35:00
11:55 PM,28.4,28.4,100,29.98,3.0,East,5.8,-,N/A,,Clear,80,2012-11-18 05:55:00